Home   Weather   Hürth   Past weeks
Flag for Germany

Past Weather in Hürth, North Rhine-Westphalia, Germany — Yesterday and Last 2 Weeks

Now
48 °F

Partly cloudy.


Feels Like: 48 °F
Forecast: 66 / 48 °F
Wind: 1 mph from South

Location: Noervenich

Current Time: May 24, 2019 at 6:04:13 am

Latest Report: May 24, 2019 at 5:20 am


Visibility: N/A

Pressure: 29.98 "Hg

Humidity: 87%

Dew Point: 45 °F

Location of HürthLocation

Past Weather in Hürth — Graph

°F

Hürth Temperature Yesterday

Maximum temperature yesterday: 72 °F (at 5:30 pm)
Minimum temperature yesterday: 45 °F (at 5:20 am)
Average temperature yesterday: 61 °F

High & Low Weather Summary for the Past Weeks

 TemperatureHumidityPressure
High72 °F (May 23, 5:30 pm)100% (May 11, 5:20 am)30.69 "Hg (May 11, 5:20 am)
Low36 °F (May 15, 5:20 am)23% (May 15, 3:20 pm)29.45 "Hg (May 9, 4:20 am)
Average53 °F73%30.00 "Hg
* Reported May 9 4:20 am — May 24 4:20 am, Hürth. Weather by CustomWeather, © 2019

Note: Actual official high and low records may vary slightly from our data, if they occured in-between our weather recording intervals... More about our weather records

Advertising

Hürth Weather History for the Previous 24 Hours

Scroll right to see more
 ConditionsComfort  
Time TempWeatherWind HumidityBarometerVisibility
4:20 am
Fri, May 24
50 °FPartly cloudy.2 mph76%29.98 "HgN/A
3:20 am50 °FPassing clouds.1 mph88%29.98 "HgN/A
2:20 am52 °FPassing clouds.1 mph82%30.01 "HgN/A
1:20 am54 °FPassing clouds.1 mph72%30.01 "HgN/A
12:20 am54 °FPassing clouds.1 mph67%30.01 "HgN/A
11:20 pm
Thu, May 23
57 °FPassing clouds.1 mph63%30.04 "HgN/A
10:20 pm59 °FPartly cloudy.5 mph55%30.04 "HgN/A
9:20 pm63 °FPartly sunny.5 mph45%30.01 "HgN/A
8:20 pm68 °FPartly sunny.6 mph38%30.01 "HgN/A
7:20 pm70 °FPartly sunny.8 mph33%30.01 "HgN/A
6:20 pm70 °FBroken clouds.6 mph38%30.01 "HgN/A
5:30 pm72 °FBroken clouds.3 mph33%30.01 "HgN/A
4:20 pm70 °FBroken clouds.2 mph38%30.04 "HgN/A
3:20 pm70 °FBroken clouds.6 mph40%30.04 "HgN/A
3:04 pm70 °FBroken clouds.3 mph40%30.04 "HgN/A
2:20 pm68 °FBroken clouds.8 mph43%30.07 "HgN/A
1:20 pm68 °FBroken clouds.1 mph46%30.07 "HgN/A
12:20 pm66 °FBroken clouds.3 mph46%30.09 "HgN/A
11:20 am64 °FBroken clouds.3 mph52%30.09 "HgN/A
10:41 am64 °FPartly sunny.1 mph52%30.09 "HgN/A
10:20 am64 °FPartly sunny.3 mph52%30.09 "HgN/A
9:20 am61 °FPartly sunny.3 mph59%30.09 "HgN/A
8:20 am55 °FPartly sunny.5 mph72%30.09 "HgN/A
7:20 am50 °FScattered clouds.6 mph76%30.09 "HgN/A
6:20 am46 °FScattered clouds.2 mph87%30.09 "HgN/A
Weather by CustomWeather, © 2019

See weather overview